Location: College Park
(38.9810°N, 76.9370°W)
Time: 20:55:35
(UTC-05:00)

OTV 5 (USA 277) - Pass Details

Date: 11 November 2017
Orbit: 404 x 417 km, 43.0° (Epoch: 07 September)

Event Time Altitude Azimuth Distance (km) Brightness Sun altitude
Exits shadow 06:06:18 11° 280° (W) 1,393 ? -8.2°
Maximum altitude 06:09:17 42° 352° (N) 584 ? -7.6°
Drops below altitude 10° 06:12:26 10° 66° (ENE) 1,457 ? -7.1°
Sets 06:14:36 0° 73° (ENE) 2,318 ? -6.7°
